Tracking 33744 objects as of 14-Apr-2026
HD Live streaming from Space Station
objects crossing your sky now

COSMOS 1275 DEB

Track COSMOS 1275 DEB now!
10-day predictions


NORAD ID: 42100
Int'l Code: 1981-053PL
Perigee: 746.3 km
Apogee: 772.4 km
Inclination: 82.9 °
Period: 99.9 minutes
Semi major axis: 7130 km
RCS: Unknown
Launch date: June 4, 1981
Source: Commonwealth of Independent States (former USSR) (CIS)
Launch site: PLESETSK MISSILE AND SPACE COMPLEX (PKMTR)

Note: This is SATELLITE DEBRIS
Your satellite tracking list
Your tracking list is empty




NASA's NSSDC Master Catalog

Two Line Element Set (TLE):
1 42100U 81053PL  26104.23448388  .00002556  00000-0  77451-3 0  9992
2 42100  82.8568 286.9083 0018302 319.2993  40.6831 14.41896255643608
Source of the keplerian elements: AFSPC